CW9971 Weather Reports


time (UTC)temp
F
wind
direction
speed
knots
gust
knots
rain 1hr
in
rain 24hr
in
rain mn
in
humidity
%
barometer
mb
20260505035513 51 346 0.9 3.5 0.00 0.00 0.00 87 1011.2
20260505035035 51 311 0.9 2.6 0.00 0.00 0.00 87 1011.2
20260505034546 51 319 0.9 2.6 0.00 0.00 0.00 86 1011.2
20260505034005 51 329 0.9 2.6 0.00 0.00 0.00 86 1011.2
20260505033529 51 313 0.0 2.6 0.00 0.00 0.00 86 1011.2
20260505033051 51 325 0.9 2.6 0.00 0.00 0.00 86 1011.2
20260505032600 51 320 0.0 1.7 0.00 0.00 0.00 86 1011.2
20260505032100 51 315 0.9 2.6 0.00 0.00 0.00 86 1011.1
20260505031529 51 323 0.9 2.6 0.00 0.00 0.00 86 1011.2
20260505031043 51 328 0.9 1.7 0.00 0.00 0.00 86 1011.3
20260505030514 51 313 0.0 2.6 0.00 0.00 0.00 86 1011.3
20260505030034 51 312 0.0 2.6 0.00 0.00 0.00 86 1011.4
20260505025557 51 325 0.0 1.7 0.00 0.00 0.00 86 1011.4
20260505025027 51 325 0.0 1.7 0.00 0.00 0.00 86 1011.5
20260505024605 52 325 0.0 1.7 0.00 0.00 0.00 85 1011.5
20260505024003 52 325 0.0 1.7 0.00 0.00 0.00 85 1011.5
20260505023523 52 325 0.0 1.7 0.00 0.00 0.00 84 1011.5
20260505023055 52 323 0.0 1.7 0.00 0.00 0.00 85 1011.5
20260505022602 53 323 0.9 1.7 0.00 0.00 0.00 84 1011.5
20260505022020 53 323 0.0 1.7 0.00 0.00 0.00 84 1011.4
20260505021601 53 323 0.0 1.7 0.00 0.00 0.00 83 1011.4
20260505021100 53 323 0.0 1.7 0.00 0.00 0.00 83 1011.4
20260505020521 54 313 0.0 1.7 0.00 0.00 0.00 83 1011.4
20260505020047 54 304 0.0 1.7 0.00 0.00 0.00 82 1011.3
20260505015517 54 300 0.0 0.9 0.00 0.00 0.00 82 1011.3
20260505015035 55 300 0.0 0.9 0.00 0.00 0.00 81 1011.3
20260505014558 55 300 0.0 0.9 0.00 0.00 0.00 80 1011.2
20260505013524 55 273 0.0 0.0 0.00 0.00 0.00 80 1011.1
20260505013049 56 259 0.0 0.0 0.00 0.00 0.00 79 1011.1
20260505012512 56 259 0.0 0.0 0.00 0.00 0.00 78 1011.0
20260505012034 57 259 0.0 0.0 0.00 0.00 0.00 76 1010.9
20260505011558 57 259 0.0 0.0 0.00 0.00 0.00 77 1010.9
20260505011017 57 259 0.0 0.9 0.00 0.00 0.00 76 1010.9
20260505010551 58 254 0.0 0.9 0.00 0.00 0.00 75 1010.9
20260505010009 58 254 0.0 0.0 0.00 0.00 0.00 73 1010.8
20260505005530 59 254 0.0 0.0 0.00 0.00 0.00 72 1010.8
20260505005045 59 254 0.0 0.9 0.00 0.00 0.00 72 1010.8
20260505004521 60 254 0.0 0.9 0.00 0.00 0.00 71 1010.7
20260505004038 60 254 0.0 0.9 0.00 0.00 0.00 71 1010.7
20260505003558 60 254 0.0 0.9 0.00 0.00 0.00 69 1010.6
20260505003037 61 254 0.0 1.7 0.00 0.00 0.00 68 1010.6
20260505002554 62 245 0.0 1.7 0.00 0.00 0.00 67 1010.6
20260505002003 62 253 0.0 1.7 0.00 0.00 0.00 65 1010.6
20260505001522 64 285 0.0 3.5 0.00 0.00 0.00 63 1010.5
20260505001035 65 295 0.0 3.5 0.00 0.00 0.00 60 1010.5
20260505000551 66 309 0.0 1.7 0.00 0.00 0.00 57 1010.5
20260505000011 68 205 0.0 5.2 0.00 0.00 0.00 52 1010.5
20260504235530 69 275 2.6 5.2 0.00 0.00 0.00 48 1010.5
20260504235055 69 269 0.0 4.3 0.00 0.00 0.00 49 1010.5
20260504234512 69 335 1.7 4.3 0.00 0.00 0.00 49 1010.5
20260504234038 70 273 0.9 6.1 0.00 0.00 0.00 46 1010.4
20260504233557 70 294 0.9 6.1 0.00 0.00 0.00 46 1010.5
20260504233018 70 292 2.6 6.1 0.00 0.00 0.00 46 1010.4
20260504232548 70 274 0.9 6.1 0.00 0.00 0.00 49 1010.5
20260504232008 70 254 0.0 5.2 0.00 0.00 0.00 52 1010.6
20260504231528 69 275 0.9 5.2 0.00 0.00 0.00 50 1010.5
20260504231049 71 275 0.0 6.1 0.00 0.00 0.00 52 1010.6
20260504230509 70 295 0.0 2.6 0.00 0.00 0.00 55 1010.6
20260504230039 72 244 0.9 5.2 0.00 0.00 0.00 47 1010.6
20260504225601 72 144 0.0 7.0 0.00 0.00 0.00 48 1010.6
20260504225033 73 284 1.7 7.0 0.00 0.00 0.00 46 1010.7
20260504224552 73 338 2.6 5.2 0.00 0.00 0.00 47 1010.7
20260504224019 73 254 1.7 6.1 0.00 0.00 0.00 46 1010.8
20260504223543 73 244 1.7 7.0 0.00 0.00 0.00 45 1010.7
20260504223002 74 301 0.9 4.3 0.00 0.00 0.00 46 1010.7
20260504222533 74 325 0.0 3.5 0.00 0.00 0.00 47 1010.7
20260504222054 74 254 0.9 7.0 0.00 0.00 0.00 46 1010.7
20260504221527 74 229 1.7 7.0 0.00 0.00 0.00 46 1010.7
20260504221046 74 250 2.6 7.0 0.00 0.00 0.00 46 1010.7
20260504220508 75 244 0.9 7.0 0.00 0.00 0.00 43 1010.7
20260504220046 75 211 1.7 7.0 0.00 0.00 0.00 44 1010.7
20260504215555 75 221 0.9 5.2 0.00 0.00 0.00 47 1010.7
20260504215013 75 142 2.6 5.2 0.00 0.00 0.00 45 1010.6
20260504214533 75 269 1.7 6.1 0.00 0.00 0.00 45 1010.7
20260504214001 75 197 2.6 7.0 0.00 0.00 0.00 43 1010.7
20260504213522 75 167 1.7 7.0 0.00 0.00 0.00 48 1010.7
20260504213108 75 253 2.6 6.1 0.00 0.00 0.00 45 1010.7
20260504212508 75 180 1.7 5.2 0.00 0.00 0.00 47 1010.7
20260504212030 75 291 2.6 6.1 0.00 0.00 0.00 45 1010.8
20260504211549 74 299 2.6 7.8 0.00 0.00 0.00 47 1010.9
20260504211019 75 198 0.9 7.8 0.00 0.00 0.00 47 1011.0
20260504210541 74 211 1.7 7.0 0.00 0.00 0.00 47 1011.0
20260504210104 74 279 0.9 4.3 0.00 0.00 0.00 47 1011.1
20260504205531 74 251 0.9 6.1 0.00 0.00 0.00 46 1011.1
20260504205048 74 102 2.6 6.1 0.00 0.00 0.00 46 1011.2
20260504204614 75 84 0.9 5.2 0.00 0.00 0.00 47 1011.2
20260504204024 75 160 0.0 7.0 0.00 0.00 0.00 51 1011.3
20260504203549 74 226 1.7 8.7 0.00 0.00 0.00 49 1011.4
20260504203016 74 314 0.0 8.7 0.00 0.00 0.00 47 1011.3
20260504202533 74 187 1.7 5.2 0.00 0.00 0.00 48 1011.4
20260504202057 74 238 1.7 6.1 0.00 0.00 0.00 52 1011.5
20260504201509 74 321 0.9 3.5 0.00 0.00 0.00 51 1011.5
20260504201043 74 216 0.9 8.7 0.00 0.00 0.00 57 1011.6
20260504200510 73 235 1.7 8.7 0.00 0.00 0.00 50 1011.8
20260504200042 73 274 1.7 5.2 0.00 0.00 0.00 52 1011.9
20260504195556 73 11 0.9 6.1 0.00 0.00 0.00 52 1011.9
20260504195009 73 108 0.9 7.0 0.00 0.00 0.00 56 1012.1
20260504194541 73 211 3.5 7.0 0.00 0.00 0.00 56 1012.3
20260504194101 73 166 2.6 6.1 0.00 0.00 0.00 58 1012.2
20260504193525 72 263 1.7 8.7 0.00 0.00 0.00 51 1012.3
20260504193053 72 293 4.3 8.7 0.00 0.00 0.00 55 1012.4
20260504190502 71 205 1.7 7.8 0.00 0.00 0.00 54 1013.1
20260504190019 71 154 3.5 7.8 0.00 0.00 0.00 53 1013.1
20260504185556 71 146 3.5 7.0 0.00 0.00 0.00 52 1013.2
20260504185033 71 140 2.6 7.0 0.00 0.00 0.00 53 1013.3
20260504184555 70 144 1.7 6.1 0.00 0.00 0.00 55 1013.3
20260504184018 70 223 1.7 7.0 0.00 0.00 0.00 51 1013.4
20260504183542 70 268 1.7 7.8 0.00 0.00 0.00 51 1013.5
20260504183012 70 158 1.7 7.8 0.00 0.00 0.00 54 1013.6
20260504182534 70 279 3.5 7.8 0.00 0.00 0.00 55 1013.6
20260504182052 70 247 2.6 6.1 0.00 0.00 0.00 57 1013.7
20260504181513 70 320 1.7 6.1 0.00 0.00 0.00 55 1013.7
20260504181035 69 71 0.0 6.1 0.00 0.00 0.00 51 1013.8
20260504180507 69 223 1.7 8.7 0.00 0.00 0.00 55 1014.0
20260504180029 68 55 0.9 8.7 0.00 0.00 0.00 52 1014.1
20260504175551 69 216 1.7 7.8 0.00 0.00 0.00 58 1014.1
20260504175020 68 325 2.6 7.8 0.00 0.00 0.00 54 1014.1
20260504174545 68 247 0.0 4.3 0.00 0.00 0.00 54 1014.2
20260504174057 67 286 2.6 4.3 0.00 0.00 0.00 57 1014.2
20260504173525 67 249 1.7 6.1 0.00 0.00 0.00 58 1014.3
20260504173044 68 149 1.7 8.7 0.00 0.00 0.00 55 1014.5
20260504172512 67 346 3.5 8.7 0.00 0.00 0.00 57 1014.4
20260504172031 67 167 0.0 7.8 0.00 0.00 0.00 56 1014.4
20260504171544 66 157 3.5 7.8 0.00 0.00 0.00 53 1014.5
20260504171101 67 247 1.7 7.8 0.00 0.00 0.00 53 1014.6
20260504170526 66 267 2.6 8.7 0.00 0.00 0.00 56 1014.7
20260504151058 54 145 0.9 2.6 0.00 0.00 0.00 70 1016.8
20260504150515 54 171 0.9 2.6 0.00 0.00 0.00 72 1016.9
20260504141024 52 126 1.7 3.5 0.00 0.00 0.00 78 1017.9
20260504140545 52 145 0.9 4.3 0.00 0.00 0.00 79 1017.9
20260504130517 49 128 0.0 2.6 0.00 0.00 0.00 80 1017.5
20260504110556 38 288 0.9 1.7 0.00 0.00 0.00 96 1016.0
20260504100506 37 285 0.0 0.9 0.00 0.00 0.00 95 1016.3
20260504081545 37 313 0.0 0.9 0.00 0.00 0.00 94 1016.4
20260504081100 37 313 0.0 0.0 0.00 0.00 0.00 94 1016.4
20260504080516 37 313 0.0 0.9 0.00 0.00 0.00 94 1016.3
20260504050556 40 313 0.0 0.9 0.00 0.00 0.00 90 1016.4
20260504050021 40 313 0.0 0.9 0.00 0.00 0.00 90 1016.5
20260504045545 40 313 0.0 0.9 0.00 0.00 0.00 90 1016.4
20260504045011 40 313 0.0 0.0 0.00 0.00 0.00 91 1016.3
20260504044533 40 313 0.0 0.0 0.00 0.00 0.00 91 1016.3
20260504044054 40 313 0.0 0.0 0.00 0.00 0.00 90 1016.3
20260504043520 40 313 0.0 0.9 0.00 0.00 0.00 90 1016.2
20260504043044 41 313 0.0 0.9 0.00 0.00 0.00 90 1016.2
20260504042511 41 313 0.0 0.0 0.00 0.00 0.00 90 1016.2
20260504042031 41 313 0.0 0.0 0.00 0.00 0.00 90 1016.2
20260504041551 41 313 0.0 1.7 0.00 0.00 0.00 89 1016.2
20260504041008 41 313 0.0 1.7 0.00 0.00 0.00 89 1016.2
20260504040537 41 313 0.0 0.9 0.00 0.00 0.00 89 1016.2
20260504040056 41 313 0.0 0.9 0.00 0.00 0.00 88 1016.1